Flag for Canada Weather past 2 weeks in Chatham-Kent, Ontario, Canada

Now
37 °F

Chilly.


Feels Like: 33 °F
Forecast: 31 / 37 °F
Wind: 5 mph from Southwest

Location: Erieau

Current Time: Dec 28, 2014 at 1:53:22 PM

Latest Report: Dec 28, 2014 at 1:00 PM


Visibility: N/A

Pressure: 30.06 "Hg

Humidity: 80%

Dew point: 31 °F

Location of Chatham-KentLocation

Historic Weather in Chatham-Kent — Graph

°F

Chatham-Kent temperature yesterday

Maximum temperature yesterday: 44 °F (at 3:00 PM)
Minimum temperature yesterday: 38 °F (at 8:00 AM)
Average temperature yesterday: 41 °F

Past Weeks' High & Low Weather Summary

 TemperatureHumidityPressure
High45 °F (Dec 24, 7:00 PM)100% (Dec 14, 3:00 PM)30.34 "Hg (Dec 14, 3:00 PM)
Low27 °F (Dec 19, 4:00 AM)62% (Dec 21, 12:00 PM)29.19 "Hg (Dec 24, 7:00 PM)
Average37 °F85%30.02 "Hg
* Reported Dec 13 12:00 Noon — Dec 28 12:00 Noon, Chatham-Kent, Weather by CustomWeather, © 2014

Note: Actual official high and low records may vary slightly from our data, if they occured in-between our weather recording intervals... More about our weather records

Advertising

Chatham-Kent weather history for previous 24 hours

 ConditionsComfort  
Time TempWeatherWind HumidityBarometerVisibility
12:00 PM
Dec 28
37 °FChilly.3 mph76%30.08 "HgN/A
11:00 AM36 °FChilly.5 mph75%30.09 "HgN/A
10:00 AM36 °FChilly.1 mph80%30.08 "HgN/A
9:00 AM36 °FChilly.2 mph83%30.07 "HgN/A
8:00 AM35 °FChilly.5 mph88%30.06 "HgN/A
7:00 AM37 °FChilly.6 mph81%30.04 "HgN/A
6:00 AM37 °FChilly.6 mph81%30.01 "HgN/A
5:00 AM37 °FChilly.7 mph86%29.99 "HgN/A
4:00 AM38 °FChilly.7 mph78%29.98 "HgN/A
3:00 AM38 °FChilly.8 mph77%29.98 "HgN/A
2:00 AM37 °FChilly.6 mph89%29.97 "HgN/A
1:00 AM38 °FChilly.7 mph87%29.96 "HgN/A
12:00 AM40 °FChilly.10 mph85%29.96 "HgN/A
11:00 PM
Dec 27
41 °FQuite cool.13 mph96%29.95 "HgN/A
10:00 PM43 °FQuite cool.15 mph96%29.93 "HgN/A
9:00 PM42 °FQuite cool.17 mph94%29.95 "HgN/A
8:00 PM42 °FQuite cool.16 mph93%29.96 "HgN/A
7:00 PM43 °FQuite cool.18 mph92%29.98 "HgN/A
6:00 PM42 °FQuite cool.16 mph92%29.99 "HgN/A
5:00 PM42 °FQuite cool.17 mph94%29.97 "HgN/A
4:00 PM42 °FQuite cool.17 mph84%29.99 "HgN/A
3:00 PM44 °FQuite cool.20 mph80%29.98 "HgN/A
2:00 PM42 °FQuite cool.15 mph81%29.98 "HgN/A
1:00 PM43 °FQuite cool.16 mph78%29.99 "HgN/A
Weather by CustomWeather, © 2014

See weather overviewHow to use our weather pages